Location: Nied?wied?
(53.3665°N, 14.8184°E)
Time: 23:05:03
(UTC+00:00)

Cosmos 2366 rocket - Pass Details

Date: 03 March 2021
Orbit: 954 x 997 km, 82.9° (Epoch: 12 April)

Event Time Altitude Azimuth Distance (km) Brightness Sun altitude
Rises 18:22:46 0° 168° (SSE) 3,687 6.8 -15.7°
Reaches altitude 10° 18:25:20 10° 164° (SSE) 2,747 6.1 -16.0°
Maximum altitude 18:31:22 50° 91° (E) 1,252 4.2 -16.9°
Drops below altitude 10° 18:37:29 10° 18° (NNE) 2,779 6.3 -17.8°
Sets 18:40:05 0° 14° (NNE) 3,733 7.1 -18.2°
